TimeCST,TemperatureF,Dew PointF,Humidity,Sea Level PressureIn,VisibilityMPH,Wind Direction,Wind SpeedMPH,Gust SpeedMPH,PrecipitationIn,Events,Conditions,WindDirDegrees,DateUTC
12:56 AM,9.1,-2.9,58,30.40,10.0,North,4.6,-,N/A,,Clear,10,2014-01-29 06:56:00
1:56 AM,8.1,-2.9,61,30.40,10.0,North,5.8,-,N/A,,Clear,360,2014-01-29 07:56:00
2:56 AM,7.2,-4.0,60,30.41,10.0,Calm,Calm,-,N/A,,Clear,0,2014-01-29 08:56:00
3:56 AM,6.1,-4.9,61,30.40,10.0,Calm,Calm,-,N/A,,Clear,0,2014-01-29 09:56:00
4:56 AM,5.0,-4.9,64,30.39,10.0,Calm,Calm,-,N/A,,Clear,0,2014-01-29 10:56:00
5:56 AM,4.1,-4.0,69,30.42,10.0,Calm,Calm,-,N/A,,Clear,0,2014-01-29 11:56:00
6:56 AM,4.1,-4.9,66,30.42,10.0,Calm,Calm,-,N/A,,Clear,0,2014-01-29 12:56:00
7:56 AM,9.1,-2.9,58,30.44,10.0,NNE,3.5,-,N/A,,Clear,20,2014-01-29 13:56:00
8:56 AM,14.0,-8.0,37,30.46,10.0,North,8.1,-,N/A,,Clear,10,2014-01-29 14:56:00
9:56 AM,19.0,-6.9,32,30.46,10.0,NNE,6.9,-,N/A,,Clear,30,2014-01-29 15:56:00
10:56 AM,20.1,-4.9,33,30.46,10.0,NE,8.1,-,N/A,,Clear,40,2014-01-29 16:56:00
11:56 AM,24.1,-4.0,29,30.43,10.0,NNW,4.6,-,N/A,,Clear,340,2014-01-29 17:56:00
12:56 PM,27.1,-4.9,25,30.42,10.0,NNW,9.2,-,N/A,,Clear,340,2014-01-29 18:56:00
1:56 PM,28.0,-4.9,24,30.40,10.0,Variable,4.6,-,N/A,,Clear,0,2014-01-29 19:56:00
2:56 PM,29.1,-6.0,22,30.39,10.0,North,6.9,-,N/A,,Clear,360,2014-01-29 20:56:00
3:56 PM,27.1,-6.0,24,30.39,10.0,Calm,Calm,-,N/A,,Clear,0,2014-01-29 21:56:00
4:56 PM,26.1,-6.0,25,30.38,10.0,Calm,Calm,-,N/A,,Clear,0,2014-01-29 22:56:00
5:56 PM,21.0,-2.9,35,30.38,10.0,Calm,Calm,-,N/A,,Clear,0,2014-01-29 23:56:00
6:56 PM,16.2,2.1,54,30.38,10.0,Calm,Calm,-,N/A,,Clear,0,2014-01-30 00:56:00
7:56 PM,15.1,2.1,57,30.37,10.0,Calm,Calm,-,N/A,,Clear,0,2014-01-30 01:56:00
8:56 PM,12.0,2.1,65,30.37,10.0,Calm,Calm,-,N/A,,Clear,0,2014-01-30 02:56:00
9:56 PM,10.0,2.1,70,30.38,10.0,Calm,Calm,-,N/A,,Clear,0,2014-01-30 03:56:00
10:56 PM,8.1,3.0,80,30.37,10.0,Calm,Calm,-,N/A,,Clear,0,2014-01-30 04:56:00
11:56 PM,6.1,3.0,87,30.36,10.0,Calm,Calm,-,N/A,,Clear,0,2014-01-30 05:56:00